Terminal Aerodrome Forecast
Issued by NWS Boston, MA

Home | Current Version | Previous Version | Text Only | Print | Product List | Glossary On
Versions: 1 2 3 4 5 6 7 8 9 10 11 12 13 14 15 16 17 18 19 20 21 22 23 24 25 26 27 28 29 30 31 32 33 34 35 36 37 38 39 40 41 42 43 44 45 46 47
000
FTUS41 KBOX 071125
TAFBDL
TAF
KBDL 071125Z 0712/0818 15004KT P6SM OVC012
     FM071400 16005KT P6SM OVC020
     FM071900 19009KT P6SM BKN040
     FM080300 20006KT 5SM BR BKN250
     FM080800 18005KT 3SM BR BKN150
     FM081400 22006KT P6SM BKN080=

USA.gov is the U.S. government's official web portal to all federal, state and local government web resources and services.